Temp
15 15 16 16 16 17 17 17 17 17 18 18 18 18 18 18 19 18 18 18 18 18 18 19 19 19 20 20 20 20 20 20 19 19 18 17 18 19 19 19 19 19 20 20 20 20 20 20 20 21 22 22 22 22 22 22 22 22 20 19 19 19 19 19 18 18 19 18 18 17 17 18 17 15 15 14 13 12 12 11 11 11 11 11 11 11 10 10
15 15 16 16 16 17 17 17 17 18 18 18 18 18 19 19 19 19 18 18 18 18 18 18 19 19 20 20 20 20 20 20 19 18 18 18 19 19 19 19 19 19 20 20 20 19 19 20 19 20 21 22 21 21 21 21 22 21 20 19 19 19 18 18 18 18 18 18 17 16 16 16 15 15 16 14 11 11 11 11 11 11 10 11 11 10 10 10
15 15 16 16 17 17 17 18 18 18 18 18 18 19 19 19 19 19 18 18 18 18 18 18 18 19 20 20 20 20 20 20 19 18 18 19 19 20 20 19 19 19 19 20 19 18 18 19 19 19 21 21 21 22 21 21 21 21 20 19 19 19 18 17 18 18 17 17 17 16 15 15 14 15 15 12 11 11 10 10 10 10 10 10 10 10 10 9
15 15 16 16 17 17 18 18 18 18 18 18 18 19 19 19 19 19 19 19 19 19 19 19 18 19 20 20 20 20 20 19 18 18 19 19 19 20 20 20 20 20 20 19 19 19 19 19 19 20 20 21 22 22 21 21 21 21 20 19 19 19 18 17 17 17 17 18 17 16 15 15 13 13 13 12 12 11 10 10 10 10 10 10 9 9 9 9
15 16 16 17 17 18 18 18 18 18 18 18 18 19 19 19 19 19 19 19 19 19 19 19 19 19 20 20 20 20 19 19 19 19 19 19 19 20 20 20 20 20 20 20 20 20 19 19 19 20 21 21 21 21 21 21 21 20 20 19 19 19 17 17 17 17 17 17 17 16 15 15 13 13 12 13 13 11 10 10 10 10 10 10 9 9 9 8
15 16 17 17 18 18 18 18 18 18 18 18 19 19 19 19 19 19 19 19 19 19 19 20 20 20 20 20 20 20 19 19 19 19 18 19 19 20 20 21 20 20 20 20 20 20 20 19 19 20 21 21 21 21 21 21 21 20 19 19 19 19 18 17 17 17 17 17 17 16 15 14 13 12 11 12 12 11 11 11 11 10 10 10 9 9 8 8
16 17 17 17 18 18 18 18 18 18 18 19 19 19 19 19 19 19 20 20 20 20 20 20 20 20 20 20 20 19 19 18 18 18 18 19 19 20 20 21 20 20 20 20 19 19 20 20 20 20 20 21 20 20 20 20 20 20 19 19 19 19 18 17 17 17 17 17 16 16 15 14 13 13 11 11 11 11 11 10 9 9 9 9 9 8 7 7
16 17 17 17 18 18 18 18 18 18 19 19 19 20 20 20 20 20 20 20 20 20 20 20 20 20 20 20 20 19 18 18 18 18 18 19 19 20 20 21 21 20 20 19 19 19 19 19 19 19 20 20 20 20 19 19 19 19 19 19 19 18 18 17 17 17 17 17 16 15 15 14 13 13 11 11 11 11 11 10 9 9 9 9 9 8 7 7
17 17 17 17 17 18 18 18 18 19 19 20 20 20 20 20 20 20 20 20 21 21 21 21 21 20 20 19 19 19 18 18 18 19 19 19 19 19 20 20 20 20 20 20 19 18 19 18 19 19 19 19 20 19 18 19 19 18 18 19 19 18 17 17 17 17 17 17 16 15 14 13 12 12 11 11 11 11 11 11 10 9 9 9 9 8 7 6
17 17 17 17 18 18 18 18 19 19 20 20 20 20 20 20 20 20 21 21 21 21 21 21 20 20 20 19 18 18 18 19 19 19 19 19 19 20 20 20 20 20 20 20 19 18 18 18 18 18 19 19 19 18 18 18 18 18 18 18 19 18 18 17 17 17 17 17 16 15 14 12 12 13 12 11 11 11 11 11 10 10 9 9 9 8 7 7
17 17 17 18 18 18 18 19 19 20 20 20 20 20 20 20 20 20 21 21 21 21 21 21 21 21 20 19 18 18 19 19 19 19 19 19 19 20 20 19 19 20 20 20 19 19 18 18 18 18 19 18 18 18 18 18 17 18 18 18 18 19 18 18 17 17 17 17 17 16 14 12 12 12 12 11 11 12 11 11 11 10 9 9 8 8 7 7
17 17 18 18 18 18 19 19 20 20 20 20 20 20 20 20 20 21 21 21 21 21 21 21 21 21 20 18 18 19 19 19 19 19 19 19 20 20 20 19 19 19 20 20 20 20 19 18 19 19 19 18 18 18 18 17 17 18 18 18 18 18 18 18 18 17 16 17 17 16 14 13 12 12 12 11 11 11 11 11 11 10 9 8 8 8 7 7
17 18 18 18 18 19 19 19 20 20 20 20 20 20 20 20 20 21 21 21 21 21 21 21 21 21 20 19 19 20 20 20 19 19 19 20 20 20 20 20 19 20 20 20 20 21 20 19 19 19 18 18 18 18 17 17 18 18 18 18 18 17 18 18 18 17 16 17 17 16 15 14 14 12 11 11 11 11 11 11 11 10 10 8 8 8 7 7
18 18 18 18 19 19 19 19 20 20 20 20 20 21 21 21 21 21 21 21 21 21 21 21 21 21 20 19 20 20 20 20 20 19 19 19 20 20 20 20 20 20 20 20 21 21 21 20 19 18 18 17 17 17 18 18 18 18 17 17 16 16 17 17 17 17 17 17 16 16 14 14 14 12 10 11 11 11 11 11 10 10 10 9 8 8 8 7
18 18 18 19 19 19 19 19 19 20 20 20 20 21 21 21 21 21 21 21 21 21 22 21 21 21 19 19 20 20 20 20 20 19 19 19 19 19 20 20 20 20 20 20 21 21 21 21 19 17 17 17 16 17 18 18 18 16 16 16 14 15 16 15 17 18 17 17 16 16 14 14 15 12 10 11 11 11 11 10 10 10 10 9 8 7 7 7
18 18 19 19 19 19 19 19 19 20 20 20 20 21 21 21 21 21 21 21 21 21 22 21 21 21 19 19 20 20 20 19 20 19 19 19 18 19 19 20 21 21 21 21 21 20 20 20 18 16 16 15 14 15 18 17 15 14 14 14 14 15 14 14 16 17 17 17 16 16 15 15 15 12 10 11 11 11 10 10 10 10 10 9 8 8 7 7
18 18 19 19 19 19 20 20 20 20 20 20 20 21 21 21 21 21 22 22 21 21 21 21 21 21 20 19 20 19 19 19 20 19 19 19 19 19 19 19 20 20 20 21 21 20 19 19 18 16 15 14 13 14 17 15 13 13 13 13 14 14 13 13 15 16 16 16 15 15 15 14 15 12 10 11 11 11 10 10 10 10 9 9 8 8 8 7
18 18 19 20 20 20 20 20 20 20 20 20 21 21 21 21 21 21 21 22 22 21 21 20 20 20 19 19 19 18 18 19 20 19 19 20 20 20 19 19 19 19 19 20 19 19 18 17 17 15 14 13 13 13 14 13 12 13 12 12 13 12 12 12 14 15 15 14 14 14 14 14 14 11 10 10 11 10 10 10 9 9 9 9 8 8 7 7
18 19 20 20 20 20 20 21 21 21 21 21 21 21 21 21 21 21 20 20 21 20 19 19 19 19 19 19 18 18 19 19 19 18 18 19 20 21 20 19 19 19 20 19 17 17 17 16 15 14 14 13 13 13 13 13 13 12 12 12 12 12 12 13 14 15 14 13 13 14 13 14 14 12 10 10 10 10 10 10 9 9 8 8 8 7 7 7
18 19 20 20 20 20 21 21 21 21 21 22 21 21 21 21 21 20 18 18 18 18 18 18 18 18 19 19 18 19 19 20 19 17 18 18 19 20 20 19 19 19 18 18 17 16 15 15 14 14 14 14 14 14 13 13 13 12 12 12 12 12 11 13 14 14 14 13 13 13 12 12 13 13 12 10 10 10 9 9 9 8 8 7 7 7 7 7
19 19 20 20 21 21 21 21 21 20 21 21 21 20 19 19 19 19 18 17 17 17 18 18 19 19 18 19 19 18 18 19 18 17 18 18 19 20 18 18 19 18 17 17 17 16 15 14 14 14 14 14 14 14 13 13 13 12 12 13 13 12 12 13 13 13 14 12 12 12 12 12 13 14 13 10 9 9 9 9 8 7 7 7 7 7 7 6
20 20 20 21 21 21 21 21 21 21 21 22 21 18 16 16 17 18 18 18 18 18 18 18 18 18 18 19 19 18 17 17 17 17 17 18 18 18 17 17 17 16 16 17 17 16 15 14 14 15 14 14 14 14 14 14 13 12 12 13 13 13 12 12 13 13 13 12 11 12 11 11 13 13 12 10 9 8 8 8 7 6 6 7 7 6 6 5
20 20 20 21 21 21 21 21 22 22 22 22 20 17 15 16 17 17 18 19 19 18 18 18 18 17 18 18 19 18 17 17 17 17 17 17 16 16 16 16 16 16 15 16 17 16 15 14 15 15 14 15 14 14 14 13 13 12 11 12 12 12 11 11 12 12 12 11 11 12 11 11 13 13 10 9 8 7 7 7 6 7 6 6 6 5 5 4
20 20 21 21 21 21 21 21 21 21 21 20 19 16 16 17 17 17 18 19 19 18 18 18 18 17 17 18 18 18 18 17 16 17 17 16 16 16 16 16 16 16 14 14 16 15 15 15 15 15 14 15 14 13 13 12 12 12 11 12 12 12 11 11 11 11 11 11 11 11 11 12 13 13 9 7 7 7 7 7 6 6 6 5 5 5 4 4
20 20 21 21 21 21 21 21 21 20 19 19 18 17 17 18 18 18 19 19 19 18 18 18 18 18 18 18 18 17 18 18 16 17 17 16 16 16 16 16 16 16 14 14 15 15 14 14 15 15 15 14 13 13 12 12 11 11 12 13 13 12 11 11 11 10 10 11 12 12 11 10 12 13 9 7 7 6 6 6 5 5 5 5 5 4 4 4
20 20 20 21 21 21 21 21 20 20 19 18 17 18 17 18 18 18 19 20 19 18 18 19 19 18 18 18 17 17 18 18 17 17 17 17 16 16 16 15 15 15 14 14 15 15 14 14 14 14 14 13 12 12 12 12 11 11 13 13 12 12 11 11 10 9 9 10 11 12 10 9 11 12 9 6 6 6 5 5 5 5 5 5 4 4 4 4
20 20 20 20 21 21 21 20 19 20 19 18 17 18 17 17 18 18 19 20 19 18 18 19 19 19 18 17 16 17 17 17 17 17 17 16 16 16 15 14 15 15 14 14 15 15 14 14 14 13 13 13 12 12 12 12 11 12 13 13 12 11 11 11 10 9 9 10 10 12 11 9 10 11 8 6 6 5 4 4 4 5 5 4 4 4 3 3
20 20 20 20 20 20 20 19 19 19 19 18 18 18 18 18 17 18 20 20 18 18 18 18 19 19 18 16 16 17 17 16 16 17 17 16 15 15 15 14 14 14 14 14 15 14 14 13 13 13 13 13 13 13 12 11 12 13 13 12 11 11 11 10 9 9 9 9 10 11 10 9 9 10 7 6 5 4 4 4 4 4 4 3 3 3 3 3
20 20 20 20 20 20 19 20 20 19 18 19 18 18 17 18 18 19 20 19 18 18 18 18 19 18 16 16 16 16 16 16 15 16 17 15 14 15 14 13 13 14 14 14 15 14 13 13 12 12 13 13 13 13 12 12 12 12 12 12 11 10 11 10 9 10 10 10 10 9 9 8 7 9 7 6 5 3 3 4 4 4 3 3 3 3 3 2
19 20 20 20 20 19 19 19 19 19 19 19 18 18 17 18 19 20 20 19 18 17 17 17 17 16 15 16 16 15 15 16 15 15 15 14 13 13 13 13 12 14 15 14 14 14 12 12 12 12 13 12 12 12 13 12 11 12 12 11 10 10 10 10 10 11 9 9 10 9 9 8 6 7 5 5 5 3 3 4 3 3 2 2 3 2 2 2
19 19 19 20 19 19 19 19 18 19 18 18 18 17 18 19 19 19 19 18 17 17 16 16 15 15 14 14 15 14 15 16 15 15 14 13 11 11 12 12 11 13 14 13 13 13 12 12 12 13 13 12 12 12 13 13 10 11 11 9 9 9 9 10 10 10 8 8 9 9 9 8 6 6 5 4 4 4 4 3 2 2 2 2 2 2 2 1
18 18 18 19 18 18 18 18 18 18 18 18 17 17 19 20 18 18 18 17 17 16 15 15 14 14 14 13 14 13 13 15 15 14 13 12 10 9 9 9 9 11 13 12 11 12 13 13 12 12 12 12 12 12 12 12 10 10 10 8 8 7 7 8 8 8 7 8 9 9 8 7 7 7 5 4 4 4 4 3 2 2 2 2 2 1 1 1
18 18 18 18 18 17 17 17 17 17 17 17 17 18 20 21 18 16 16 17 16 15 14 13 13 13 13 14 14 13 13 14 14 13 13 12 11 9 9 8 8 11 12 11 10 11 12 12 12 13 13 12 12 12 11 11 11 10 10 9 8 6 6 5 6 6 7 7 8 8 7 6 7 7 5 4 4 4 4 3 2 2 1 1 1 1 1 1
18 17 17 18 17 17 17 17 17 17 17 17 19 20 20 19 17 15 15 15 14 14 13 13 13 14 14 14 14 13 14 15 14 13 13 12 11 10 9 9 9 9 9 10 10 10 11 12 12 13 12 12 12 12 11 11 10 10 10 10 8 8 6 5 5 6 6 6 7 7 7 6 7 7 5 5 5 5 4 3 2 2 1 1 1 1 0 0
18 18 17 18 18 18 17 17 18 17 17 18 20 20 19 18 16 15 14 13 12 13 13 12 13 15 15 15 14 13 13 14 14 13 12 11 10 9 9 8 8 8 8 10 10 9 10 11 13 12 11 11 12 11 11 10 10 10 10 10 8 8 8 6 6 6 5 5 5 6 7 7 7 7 5 5 5 4 3 2 1 1 1 0 0 0 -0 -0
19 18 18 18 18 18 18 18 18 17 17 20 21 18 16 15 14 14 13 12 12 12 12 13 14 15 15 15 14 14 13 13 13 13 11 10 9 9 9 8 8 7 7 8 9 9 9 10 12 11 11 12 12 11 11 10 10 10 9 9 9 8 8 6 5 6 5 4 5 6 6 6 7 6 5 4 4 3 2 1 1 0 -0 -0 -0 -0 -0 -0
19 18 18 18 18 19 19 18 18 18 17 20 20 16 13 12 11 11 10 11 11 10 12 15 15 14 14 14 14 14 13 13 13 13 12 10 9 8 8 8 8 7 6 7 8 8 8 8 10 10 11 12 11 10 11 10 10 10 9 8 9 8 7 6 5 5 4 3 5 6 5 4 4 4 4 3 2 2 1 0 -0 -0 -1 -1 -1 -1 -1 -1
18 18 18 18 18 19 18 18 18 17 17 17 16 13 12 12 10 9 9 9 10 10 13 15 14 14 14 13 14 13 13 13 13 13 12 11 10 8 7 7 7 7 5 6 8 8 7 8 9 10 11 11 10 10 11 10 10 9 9 9 8 7 6 6 5 4 4 3 4 5 4 4 4 3 2 2 1 1 1 -0 -1 -1 -1 -1 -1 -1 -1 -1
17 18 19 18 19 19 18 18 17 17 18 17 14 13 12 11 10 9 8 8 9 11 13 13 13 14 13 13 13 13 12 12 12 12 12 11 10 8 6 6 7 6 5 5 7 8 7 8 9 10 10 10 11 10 10 10 10 9 9 9 8 7 6 6 5 5 4 3 3 3 3 3 4 3 2 1 1 0 -0 -1 -1 -1 -1 -1 -1 -2 -2 -2
17 19 20 19 20 19 19 19 16 15 17 15 13 13 12 11 10 8 7 7 9 11 13 13 12 13 13 12 12 12 12 12 12 12 12 9 9 8 5 5 6 6 5 6 7 7 7 8 8 9 9 9 10 10 9 9 9 9 8 7 7 7 6 5 5 5 4 3 3 2 2 3 4 3 2 1 1 0 -1 -1 -2 -2 -2 -2 -2 -2 -2 -2
17 20 21 19 20 20 20 19 15 13 14 13 12 12 11 11 10 9 8 7 9 11 11 12 12 12 12 12 12 12 11 12 12 12 11 9 9 8 6 4 5 5 5 7 7 6 6 7 6 7 7 8 9 10 9 9 9 9 8 7 6 6 5 4 4 5 5 3 3 1 1 2 3 3 2 1 1 -1 -1 -2 -2 -2 -2 -2 -2 -2 -2 -2
18 20 20 19 20 20 20 17 13 11 12 12 12 11 11 11 11 11 10 8 9 11 11 11 12 11 11 11 11 11 11 11 11 11 10 9 8 7 6 5 5 4 5 6 6 5 5 6 5 6 7 8 10 9 8 8 9 9 8 7 7 6 5 4 3 4 4 3 3 2 1 2 3 2 2 1 -0 -1 -1 -2 -2 -2 -2 -2 -2 -2 -2 -2
20 20 19 19 20 20 19 16 12 11 11 10 10 10 10 11 11 11 10 10 11 11 11 12 11 11 11 11 11 11 11 11 11 11 9 8 7 6 6 5 5 5 5 6 5 5 5 6 6 7 7 8 10 9 8 8 9 8 7 7 7 6 5 5 4 3 2 2 2 1 0 2 3 3 2 1 -1 -1 -2 -2 -2 -3 -3 -3 -3 -3 -3 -3
19 18 19 19 20 22 21 18 15 12 11 10 11 11 10 10 11 11 11 11 11 11 12 12 11 11 11 11 11 11 11 11 11 10 9 8 7 6 5 5 5 6 5 5 5 5 6 7 7 7 6 6 7 8 7 8 7 6 6 6 6 5 4 4 3 1 1 2 2 0 -0 2 3 3 2 0 -1 -2 -2 -2 -3 -3 -3 -3 -3 -3 -3 -3
19 19 19 18 18 19 18 15 15 13 12 12 12 12 12 11 10 10 10 11 10 10 11 12 11 11 11 11 11 11 11 11 11 10 9 8 7 6 6 6 6 6 6 5 4 4 5 7 7 6 5 4 5 5 6 6 6 5 6 5 5 4 3 3 2 1 1 1 0 -1 -0 1 2 2 0 -1 -2 -3 -3 -3 -3 -3 -3 -3 -3 -3 -3 -3
20 20 19 18 16 15 14 12 13 14 13 13 14 13 13 13 11 9 10 11 10 10 11 11 10 11 11 11 11 11 11 10 10 10 8 7 7 6 6 6 6 6 6 5 4 4 4 6 6 7 6 5 5 6 6 5 4 4 5 4 4 3 2 2 2 1 1 -0 -1 -0 0 -0 0 0 -1 -2 -3 -3 -3 -3 -3 -3 -3 -3 -4 -4 -3 -4
19 18 17 17 17 16 15 13 13 14 14 14 14 13 12 13 12 11 10 11 10 10 11 11 11 11 11 10 10 10 10 10 10 9 8 7 7 7 6 6 6 6 6 5 4 4 5 6 6 6 6 6 5 5 5 4 4 4 4 4 3 2 1 1 1 1 0 -1 -2 0 0 -2 -1 -1 -2 -3 -3 -3 -3 -3 -3 -3 -4 -4 -4 -4 -4 -4
17 16 13 14 16 16 15 14 13 14 14 14 13 12 13 13 12 12 11 11 10 10 11 12 11 10 10 10 10 10 10 10 9 8 7 7 7 7 6 6 6 6 6 6 5 4 4 5 6 5 4 5 4 4 4 4 4 4 4 3 2 1 1 0 0 0 -0 -2 -2 -0 -1 -2 -1 -2 -3 -3 -3 -3 -3 -3 -3 -3 -4 -4 -4 -4 -4 -4
15 15 12 12 14 14 12 12 13 14 14 14 13 13 13 13 12 11 10 11 12 11 11 12 11 9 10 10 10 10 9 9 9 7 7 7 6 6 7 6 6 6 6 6 5 4 4 6 6 4 3 4 4 4 5 4 4 4 4 2 1 1 0 -0 -1 -0 -1 -1 -1 -1 -1 -2 -2 -2 -3 -3 -2 -3 -3 -3 -3 -4 -4 -4 -4 -4 -5 -5
16 17 15 14 14 12 11 12 13 15 14 13 14 13 12 13 12 11 9 11 12 12 11 11 10 9 10 10 9 9 8 7 8 7 6 6 6 6 6 6 6 6 6 5 5 4 4 5 5 3 3 4 4 5 5 4 4 3 3 2 1 -0 -0 -1 -1 -1 -1 -1 -1 -1 -2 -2 -2 -2 -2 -2 -2 -3 -3 -3 -4 -4 -4 -4 -4 -5 -5 -5
16 15 15 17 15 13 13 13 13 16 15 13 13 12 12 12 11 11 10 9 9 11 10 10 9 9 9 9 9 8 6 5 6 6 5 6 6 6 6 6 5 6 6 5 4 4 4 4 4 3 2 3 4 5 4 4 3 3 3 2 0 -1 -1 -2 -1 -1 -1 -1 -2 -2 -3 -3 -3 -2 -2 -2 -3 -3 -3 -4 -4 -4 -4 -4 -4 -5 -5 -5
15 14 14 17 16 13 13 13 13 15 14 11 10 11 11 11 10 10 11 9 8 8 8 8 9 9 9 10 9 7 5 5 5 5 5 5 5 5 5 5 5 5 5 5 4 4 3 3 4 3 2 3 5 4 3 2 3 3 2 1 -0 -1 -1 -1 -1 -0 -0 -1 -2 -3 -4 -3 -3 -2 -3 -3 -3 -4 -4 -4 -4 -4 -4 -4 -4 -5 -5 -6
Height
809 809 809 809 809 808 808 807 807 806 806 805 805 804 804 804 803 803 802 801 801 800 799 799 798 798 798 798 797 797 797 797 796 794 794 796 796 794 792 791 789 788 787 786 786 785 783 783 782 781 782 782 782 782 782 781 781 786 795 803 805 804 803 799 799 799 796 798 797 797 796 795 801 803 803 805 809 813 815 817 818 819 820 821 822 823 822 822
810 810 809 809 809 809 808 808 807 807 806 805 805 804 804 804 804 803 803 802 801 800 799 798 798 798 797 797 797 797 797 797 796 795 796 797 795 794 793 791 790 788 787 786 786 785 785 784 783 783 783 784 783 783 784 783 783 789 797 802 803 802 801 797 797 797 797 798 798 800 800 799 803 803 801 807 816 816 816 820 820 821 822 822 823 823 823 823
810 810 810 809 809 809 809 808 807 807 806 805 804 804 804 804 804 803 803 802 801 799 799 798 798 797 796 797 796 796 796 796 796 796 797 796 795 794 793 792 791 789 788 787 786 785 786 785 784 784 785 786 784 783 785 785 786 789 795 802 801 798 799 799 798 797 798 798 797 801 802 802 805 803 801 810 818 818 818 820 820 822 823 823 823 823 823 823
810 810 810 809 809 809 809 808 807 807 805 805 804 804 804 804 804 804 803 802 801 800 799 798 798 796 796 796 796 797 795 797 800 799 798 796 795 794 793 792 791 790 788 787 786 785 785 784 784 785 786 787 784 783 786 787 788 789 793 800 798 795 800 800 798 797 797 796 796 801 802 803 805 804 805 809 812 817 820 818 818 820 820 821 822 822 822 822
811 811 810 810 810 809 809 808 807 806 806 805 804 804 804 804 804 804 803 802 801 800 799 799 798 797 797 796 797 796 796 802 804 800 799 797 796 794 793 792 791 790 788 787 786 784 784 784 784 785 786 788 786 786 788 786 786 790 793 795 794 793 799 800 797 796 795 794 795 800 801 802 804 805 808 806 805 813 816 815 816 817 818 820 820 821 822 822
811 811 811 810 810 809 809 808 807 807 806 805 805 805 804 805 804 804 803 802 801 801 800 799 799 798 798 797 798 795 797 806 805 800 800 798 796 795 793 792 791 790 788 787 785 784 784 784 785 787 787 788 789 789 789 786 785 792 794 792 792 792 796 798 795 795 794 794 796 798 800 802 806 808 810 809 807 811 813 814 815 816 818 819 820 821 822 823
812 811 811 810 810 810 809 808 808 807 807 806 805 805 805 805 804 804 803 803 802 801 801 800 799 799 798 798 798 797 799 806 804 801 800 798 797 795 794 793 791 790 789 787 786 785 786 785 787 788 789 790 791 790 790 787 786 792 794 792 791 792 794 796 795 794 794 795 796 797 799 802 805 807 809 811 812 813 813 814 816 816 818 819 820 822 822 823
812 811 811 810 810 809 809 809 808 807 807 806 806 806 805 805 805 804 803 803 802 802 801 800 800 798 797 798 798 800 804 806 804 802 800 798 797 795 794 793 792 791 789 788 788 787 786 788 790 789 791 792 791 791 791 791 791 794 795 792 791 793 795 795 794 795 795 795 797 798 800 802 804 805 809 812 812 812 813 814 816 817 818 819 821 822 822 823
812 811 811 810 810 810 809 809 808 808 807 807 806 806 805 805 805 804 803 803 802 802 802 801 800 797 797 798 798 803 808 807 804 803 801 799 797 796 795 794 792 792 790 790 789 788 789 792 792 790 793 793 791 792 793 795 797 796 795 793 792 793 795 795 795 795 795 795 797 799 802 805 805 806 809 811 811 812 813 814 816 817 818 819 821 822 823 823
812 811 811 811 810 810 809 809 808 808 807 807 806 806 806 805 805 804 804 804 803 803 802 802 801 798 798 797 800 809 811 807 805 803 801 800 798 797 796 795 794 792 792 792 790 790 791 793 792 790 793 794 793 795 796 796 797 796 794 794 793 793 794 794 795 795 795 795 795 799 803 805 807 805 807 810 810 811 812 813 815 816 818 819 820 822 823 823
812 811 811 811 810 810 809 809 808 807 807 807 806 806 806 805 805 805 804 804 804 803 803 802 802 801 801 799 804 813 810 806 806 803 802 800 798 798 797 796 795 794 794 793 792 792 793 793 792 790 793 796 796 797 796 797 798 796 794 795 794 793 793 794 796 796 795 796 795 797 803 807 809 805 803 807 809 810 811 812 813 815 817 818 820 822 823 824
812 812 811 811 810 810 809 808 808 807 807 807 807 806 806 806 805 805 805 804 804 804 803 803 803 803 802 801 806 812 809 807 806 804 803 801 799 799 798 798 797 796 795 794 794 793 794 793 791 793 796 797 797 799 798 798 798 796 796 798 797 797 797 794 795 796 796 796 794 796 803 806 807 804 802 805 807 809 810 811 812 814 816 818 820 822 824 825
813 812 812 811 810 810 809 808 808 808 807 807 807 806 806 806 806 806 805 805 804 804 804 803 804 803 802 805 809 810 809 808 807 805 803 801 801 800 799 799 799 798 797 796 795 794 794 794 793 794 795 796 798 799 798 798 797 798 799 800 802 802 802 797 795 796 797 796 793 797 803 799 798 802 804 805 806 808 810 810 811 812 815 818 820 822 824 826
813 812 812 811 810 810 809 808 808 808 808 808 807 807 807 807 807 806 805 805 805 804 804 804 804 803 804 809 810 810 809 809 807 805 803 802 801 800 800 800 799 798 798 797 796 795 795 795 793 793 796 799 799 796 797 798 798 802 802 804 812 813 807 801 798 797 797 796 794 800 804 795 792 801 804 804 804 807 808 809 810 812 814 817 820 823 824 826
813 812 812 811 811 810 810 809 809 808 808 808 808 808 808 807 807 806 806 806 805 805 805 804 804 803 807 811 810 810 810 807 806 806 805 804 802 801 800 799 799 798 797 797 796 796 796 795 796 800 803 800 799 801 801 801 804 810 811 813 820 819 813 807 799 797 797 796 795 801 804 794 790 798 802 802 804 805 807 808 810 812 814 817 821 823 825 826
813 812 812 812 812 811 811 810 810 809 809 809 809 809 809 808 807 807 807 807 806 806 804 805 805 804 811 816 811 810 810 808 808 807 806 804 803 802 801 799 798 797 798 798 797 797 796 797 799 806 808 805 810 810 805 810 818 821 825 826 823 819 819 814 801 797 798 798 798 799 801 793 789 797 802 802 803 804 806 808 809 812 814 818 822 824 827 828
813 813 813 813 812 812 812 811 811 811 811 811 810 810 809 809 808 807 807 807 807 807 805 808 806 804 813 816 814 814 813 811 810 808 806 804 803 802 801 799 798 798 798 798 798 797 797 800 804 810 814 818 823 817 813 828 835 830 831 832 827 824 826 821 807 799 799 801 801 799 800 795 790 797 803 802 803 803 804 807 809 812 816 818 822 825 828 830
814 814 813 813 813 813 813 813 813 812 812 812 811 811 811 810 809 808 808 808 807 807 807 809 807 812 820 818 818 819 815 813 812 809 805 803 802 801 801 800 799 799 798 800 802 801 802 806 810 814 820 824 827 826 828 838 839 834 835 833 830 828 827 824 813 802 801 805 804 800 800 796 791 798 804 801 801 802 802 807 810 812 816 819 822 825 828 830
815 814 814 814 814 814 814 814 813 813 813 812 812 812 811 812 811 810 811 810 811 815 820 820 818 825 829 822 821 820 816 814 813 810 806 803 802 801 800 800 800 800 802 807 809 808 810 814 817 822 828 830 830 832 835 837 836 835 834 831 831 830 828 823 813 806 806 807 803 802 800 796 792 795 801 800 799 801 804 807 812 815 818 821 824 827 828 830
815 815 815 815 815 815 815 814 814 813 813 812 812 812 813 815 817 820 820 817 821 825 828 829 826 828 828 823 822 820 816 815 814 811 807 804 802 801 801 801 802 804 807 812 815 814 816 822 830 833 834 834 831 831 834 834 834 834 831 829 829 830 829 821 813 808 809 809 803 801 801 798 795 790 792 798 798 801 807 811 814 818 822 825 827 828 829 831
816 816 816 816 816 816 815 815 815 814 813 813 812 813 817 820 822 827 827 825 827 827 827 828 827 827 826 825 824 821 819 816 814 812 809 806 802 803 806 806 808 813 815 815 815 817 820 828 836 834 832 831 830 832 833 831 831 832 830 828 826 827 825 818 814 810 809 813 806 799 800 799 794 786 785 794 801 805 810 814 819 823 826 828 829 830 831 832
817 817 817 817 817 817 816 816 815 815 814 813 813 816 821 822 822 824 825 828 829 827 827 827 827 827 826 825 824 822 822 819 816 814 812 809 806 809 813 814 817 822 822 816 818 824 827 832 833 830 830 830 830 831 830 829 831 834 833 829 826 826 824 814 809 809 812 816 807 798 801 799 792 786 788 797 805 811 815 817 823 825 828 829 830 832 833 834
818 818 818 818 818 817 817 817 816 816 816 816 816 819 822 823 823 823 824 828 831 829 828 828 828 828 826 825 823 822 823 824 824 820 816 814 814 817 818 820 822 825 826 823 823 828 832 834 830 829 830 828 829 831 830 831 832 835 835 832 829 829 830 821 809 810 814 815 807 800 801 797 789 788 799 807 810 817 820 821 825 827 829 832 832 834 835 835
820 819 819 819 818 818 818 817 817 817 818 818 819 821 823 823 823 824 824 827 831 831 829 829 829 829 828 826 824 823 824 827 828 824 821 820 819 820 821 824 825 826 831 831 827 829 833 832 828 830 830 828 832 832 832 834 834 836 834 831 830 827 830 827 817 814 813 809 805 804 801 794 787 790 806 817 816 820 823 824 829 831 832 834 833 834 836 836
820 820 820 820 819 819 818 818 818 819 820 820 821 822 823 823 823 823 824 829 835 833 830 829 829 829 829 827 825 825 825 826 829 828 825 824 824 823 824 825 826 830 834 833 831 832 834 833 829 830 830 831 835 833 834 837 837 837 831 828 828 826 827 825 820 822 821 811 802 804 810 803 790 791 809 821 821 823 827 829 833 834 834 834 835 836 837 836
821 821 821 820 820 819 819 819 820 821 821 821 822 823 823 823 823 822 825 834 842 839 834 831 831 832 829 829 827 824 828 830 829 830 828 826 826 825 828 830 829 832 834 833 832 832 833 833 832 833 833 834 836 835 835 836 839 838 829 825 827 827 828 822 821 829 829 818 804 803 816 816 797 792 810 822 824 828 831 833 835 835 835 835 837 838 838 837
822 821 821 821 821 820 820 821 822 822 822 822 823 822 822 823 822 822 827 841 848 843 839 835 834 835 833 834 830 828 839 839 830 830 829 828 827 824 831 836 834 834 834 834 834 833 833 834 834 834 835 835 836 835 834 836 839 833 825 827 828 828 827 821 823 831 828 819 810 805 811 817 804 799 815 824 825 833 836 836 837 835 836 838 838 839 838 838
822 822 822 821 821 821 821 822 822 822 822 823 822 821 822 822 822 824 831 850 855 844 843 841 836 836 836 837 835 835 844 842 837 836 831 830 830 826 833 839 838 837 835 835 836 835 835 835 836 836 836 837 835 835 835 835 835 829 826 828 828 828 824 820 824 828 824 819 815 810 811 822 816 806 820 828 830 839 840 838 838 837 840 840 839 839 837 837
823 822 822 822 822 821 822 822 821 822 822 822 821 822 822 821 824 826 833 853 856 846 846 844 837 840 842 840 840 842 843 840 843 841 833 834 833 830 836 839 839 837 834 836 835 835 836 836 838 837 836 837 835 834 833 833 834 830 827 827 827 828 822 821 824 820 819 817 815 816 818 831 828 812 821 831 833 844 842 838 840 839 841 841 839 839 836 836
823 822 822 821 821 821 821 821 821 821 821 821 821 822 822 823 826 834 846 857 855 850 849 845 845 849 849 846 844 846 845 842 844 841 837 841 838 835 838 839 840 837 834 836 835 836 839 838 838 837 836 837 836 834 829 831 836 830 827 830 829 828 821 820 819 814 820 820 816 820 822 832 837 826 831 837 836 844 843 840 842 840 842 841 839 838 836 836
824 823 822 821 820 821 820 820 820 820 821 821 822 821 823 827 833 846 860 859 855 855 852 851 854 853 854 855 852 850 848 845 844 844 845 847 848 848 846 846 850 843 838 842 840 838 838 837 837 836 836 837 836 835 830 831 837 832 834 839 834 830 825 822 818 820 832 829 819 820 822 830 835 831 837 843 840 841 841 843 845 843 843 841 839 838 836 836
825 824 822 821 820 820 819 820 820 821 821 821 822 822 824 833 845 860 864 857 857 862 861 860 860 856 858 860 857 855 854 849 847 849 852 855 860 865 865 867 867 853 845 851 851 844 837 836 840 837 836 838 837 836 834 833 837 836 839 843 844 846 844 839 836 836 838 830 820 822 826 829 827 825 835 842 840 840 840 843 845 844 843 841 839 839 838 837
826 825 823 822 821 820 820 820 820 820 821 821 822 824 827 840 858 871 868 861 863 866 866 866 863 861 862 858 857 859 856 853 851 853 856 858 863 869 871 875 875 864 857 859 860 855 844 839 840 837 835 837 837 838 838 836 837 840 841 844 853 861 865 864 856 847 842 831 822 824 830 833 825 824 834 837 836 837 837 841 844 844 844 842 840 839 836 833
827 825 824 823 822 821 820 820 820 821 821 821 823 825 833 850 867 875 872 868 869 867 866 868 864 861 860 859 861 862 857 854 855 856 858 858 864 870 873 875 874 873 871 866 863 863 856 845 840 839 840 841 839 839 840 839 840 841 839 843 851 856 866 872 861 852 850 840 830 829 832 833 828 826 830 832 833 835 837 842 844 842 841 839 837 835 833 830
827 826 825 823 822 822 821 821 821 820 820 821 825 834 846 863 872 873 873 874 874 870 868 869 866 859 857 859 862 863 861 858 857 860 864 867 873 876 878 879 878 878 876 869 866 868 865 853 841 842 846 843 840 840 840 841 842 841 839 844 850 850 854 861 855 850 852 850 843 835 828 824 823 826 830 832 833 834 837 840 840 839 838 837 836 835 834 832
827 826 824 824 824 822 821 822 820 821 821 818 828 850 866 873 876 875 876 877 876 876 871 866 864 862 861 861 860 862 864 863 860 861 867 875 881 882 881 881 882 884 883 879 875 875 873 860 847 848 846 840 842 842 840 843 842 840 843 847 848 846 849 858 858 849 852 858 847 832 829 828 827 830 832 834 835 834 837 840 840 841 840 839 840 838 836 834
826 825 825 824 823 823 822 821 820 820 821 821 837 864 877 879 881 882 881 880 880 882 875 865 865 867 868 866 863 863 865 863 861 861 866 874 879 885 887 884 884 886 890 889 881 879 882 871 856 853 847 839 843 843 839 844 844 843 849 849 845 845 849 859 864 856 857 862 844 829 837 841 839 840 837 837 841 841 841 843 843 842 842 842 842 839 836 834
826 825 825 825 824 823 821 820 821 820 821 833 856 874 878 879 882 885 885 884 883 882 874 870 870 869 871 871 868 868 867 865 864 864 868 873 879 888 893 889 887 889 893 892 883 881 885 876 859 852 849 844 844 844 841 842 844 846 848 847 849 856 858 859 864 863 863 861 846 834 839 842 841 844 846 846 847 844 843 844 845 845 846 844 841 838 836 833
826 825 827 828 825 824 822 820 822 820 824 845 867 874 876 880 883 886 888 888 885 880 874 875 876 872 873 874 871 871 871 870 870 868 869 875 882 890 897 895 891 891 894 892 886 883 884 881 867 853 852 850 844 845 847 845 845 846 846 846 850 856 860 859 859 861 863 860 853 846 842 840 841 844 850 851 845 843 845 846 848 848 846 844 841 838 836 832
826 827 830 829 826 826 824 819 823 830 841 859 871 873 875 880 883 887 889 888 884 880 877 878 879 876 875 875 875 875 874 873 873 870 874 884 887 890 900 902 896 894 894 890 888 887 884 884 875 859 856 858 851 850 851 849 849 850 850 854 857 855 857 861 859 856 860 860 858 858 849 838 837 843 847 847 844 846 849 849 849 848 845 844 842 839 835 832
826 829 831 829 827 827 823 823 838 853 862 869 873 875 877 879 882 885 888 889 885 881 881 880 880 879 878 877 877 878 877 876 875 874 879 888 890 891 899 903 901 899 895 888 890 892 890 888 885 875 869 862 854 851 851 850 850 851 853 855 858 861 863 868 865 853 854 857 858 865 859 841 838 842 843 844 848 851 851 850 849 847 845 843 840 838 835 831
828 834 835 828 826 825 824 840 862 869 869 872 875 877 879 880 882 883 885 888 885 882 883 881 881 882 882 881 881 881 881 879 878 878 883 890 895 897 899 901 902 901 897 893 895 897 896 893 890 883 873 861 853 851 854 854 849 850 856 853 855 860 862 869 870 859 858 859 854 861 860 844 838 840 840 845 852 853 853 852 850 847 845 842 839 836 833 830
832 836 834 830 828 825 829 851 871 873 874 880 881 881 882 881 881 882 884 885 883 882 882 881 883 884 883 884 884 882 881 880 880 882 887 894 899 901 901 901 900 899 898 897 897 897 895 891 885 876 866 857 850 849 853 853 851 854 858 855 856 859 859 863 865 865 870 866 858 863 859 839 832 836 840 847 853 854 853 852 850 847 843 840 837 834 831 828
835 836 834 832 828 825 832 851 865 873 879 880 879 881 882 883 883 883 884 884 884 884 882 882 884 884 884 885 885 882 880 880 881 884 890 895 899 901 901 901 900 898 899 899 899 899 892 885 883 881 879 871 859 855 856 853 856 862 861 859 859 860 864 864 865 874 878 867 864 874 862 835 829 836 842 848 853 853 852 850 849 847 842 838 835 832 829 825
835 836 837 836 831 831 843 855 861 870 876 876 877 879 879 883 886 887 886 886 887 887 884 883 885 886 885 884 883 883 881 880 881 885 891 896 900 901 900 899 899 898 899 900 901 902 896 889 887 889 896 897 886 876 870 864 865 865 862 863 863 864 870 870 870 878 878 868 873 882 864 838 834 840 844 850 853 851 849 848 847 845 841 837 833 829 826 822
836 840 843 844 842 845 855 862 862 866 872 872 874 878 879 880 885 889 888 886 887 888 885 885 886 885 884 884 883 883 883 884 885 887 892 897 899 900 899 898 899 898 898 899 900 902 900 893 889 889 893 896 890 880 874 873 876 871 865 865 868 871 875 874 874 875 874 875 877 872 861 850 844 845 849 852 853 850 847 845 843 841 839 835 831 827 823 820
839 847 852 852 852 854 859 864 865 866 868 869 872 878 881 881 884 887 886 886 888 888 886 885 886 886 886 887 888 886 886 887 888 889 895 899 898 899 899 898 898 897 896 898 900 901 899 892 890 893 891 887 885 882 879 879 879 873 867 869 873 877 878 877 878 875 876 883 872 855 857 860 850 848 853 854 853 850 846 843 840 838 836 832 828 824 820 817
842 852 859 856 856 861 863 865 868 868 868 870 875 880 880 881 884 885 885 886 887 888 886 884 887 890 890 891 890 888 888 888 889 894 898 898 898 898 898 897 898 897 895 897 898 901 902 895 892 895 893 888 886 884 880 878 876 870 869 873 878 881 881 881 883 879 880 887 874 856 860 861 850 849 854 853 851 849 845 841 838 836 833 830 825 821 817 814
847 853 860 859 860 868 871 871 870 868 869 872 876 881 881 881 885 888 890 887 884 887 886 884 889 893 891 891 890 890 893 891 891 897 900 899 899 900 898 897 898 897 897 897 899 902 902 894 892 897 896 889 885 881 878 876 873 868 869 874 880 882 882 884 884 881 881 881 874 864 862 858 853 853 854 851 849 846 842 839 836 833 830 826 822 819 815 812
844 847 855 859 863 870 873 872 870 867 870 874 876 882 885 883 885 890 893 890 885 887 888 887 892 895 891 891 891 892 898 898 895 899 902 900 899 899 899 899 899 898 899 899 901 903 900 894 896 901 898 888 881 877 875 874 874 872 871 874 880 884 885 886 885 882 880 876 870 866 864 858 854 854 853 849 846 843 840 837 833 830 826 822 819 815 812 809
841 844 847 851 862 871 870 871 871 867 871 878 880 883 886 885 888 890 893 896 893 891 892 893 895 895 892 892 893 896 902 904 900 901 902 900 899 898 899 900 901 900 900 902 904 904 904 901 899 902 902 890 878 875 876 874 873 872 872 875 882 887 889 890 886 881 879 875 868 866 866 861 855 852 850 846 844 842 838 835 832 828 824 820 817 813 810 806
842 845 845 847 861 873 872 872 873 870 875 886 888 887 887 889 892 891 888 895 899 897 898 898 896 895 893 891 894 899 903 904 902 902 903 902 901 901 901 902 903 902 901 904 905 906 909 906 900 905 905 887 875 879 883 879 873 869 873 881 887 888 887 886 882 878 876 873 871 870 868 862 854 850 846 843 842 841 837 834 831 827 823 819 817 814 810 806
Wind_Speed
4 4 4 4 4 4 4 5 5 6 7 8 8 8 7 5 4 6 8 9 9 8 6 4 1 0 1 2 2 3 6 6 11 22 19 16 22 17 14 14 14 13 11 7 7 10 10 11 13 11 7 5 1 1 2 1 2 5 3 1 2 1 1 1 1 1 0 2 4 5 5 6 3 2 4 6 10 8 8 8 7 8 8 10 12 16 17 18
4 4 4 4 4 4 5 6 6 7 8 8 8 8 7 5 4 6 8 9 10 10 9 7 3 3 4 4 4 5 5 5 10 15 17 24 21 13 13 15 13 12 12 9 8 9 7 6 10 11 5 1 1 0 1 2 2 3 2 1 3 3 0 1 3 2 3 2 3 4 6 6 2 3 2 4 4 5 7 5 5 7 7 10 13 16 17 17
4 4 4 5 5 5 6 7 7 7 8 8 7 6 6 5 5 7 8 10 11 11 10 8 7 3 4 4 4 4 5 5 8 10 20 25 15 11 14 14 13 13 13 12 10 9 7 8 11 7 3 2 2 1 1 1 1 1 2 1 4 3 2 4 4 3 2 1 2 4 5 5 3 4 2 5 5 5 5 3 4 6 4 6 8 12 14 15
4 4 5 6 6 6 6 7 7 7 7 7 6 6 6 6 6 8 9 11 11 9 8 9 11 8 1 4 3 3 4 5 4 10 22 22 14 12 12 13 14 14 15 15 14 12 11 11 10 3 1 3 3 1 2 1 0 0 3 3 5 2 3 2 3 2 3 3 3 4 5 4 1 3 2 6 6 3 4 4 5 6 6 6 5 8 11 12
4 5 6 6 6 6 6 7 7 7 7 6 6 7 7 7 7 9 10 10 9 6 6 9 13 13 6 3 1 4 3 4 4 14 23 21 15 13 11 13 15 16 18 17 16 14 10 9 5 1 1 1 4 3 1 2 2 1 1 5 3 3 3 3 2 2 2 3 4 5 5 2 2 3 2 4 5 4 5 6 7 7 6 7 6 7 9 10
5 5 6 6 5 5 6 7 7 7 6 7 8 8 7 7 8 10 10 10 9 5 4 7 10 11 8 7 6 4 3 3 8 17 22 21 17 14 11 11 15 17 15 15 16 12 6 3 1 2 1 1 1 2 2 3 4 2 2 2 2 4 5 4 3 1 2 4 3 4 4 3 4 2 1 3 4 5 5 6 7 8 9 10 9 8 7 7
5 5 5 5 5 5 7 7 7 7 7 8 8 7 7 7 9 10 9 10 9 7 5 7 9 8 5 4 8 10 7 1 13 19 20 21 16 13 12 10 14 15 12 15 16 9 4 6 3 1 2 3 0 2 1 4 4 4 2 1 2 5 5 4 3 2 3 4 3 5 5 4 6 4 1 4 4 5 6 7 8 10 12 12 9 7 6 7
5 5 4 5 6 6 7 7 7 7 7 7 7 6 7 7 9 9 9 9 10 10 8 8 11 10 5 2 3 6 5 5 17 19 19 19 15 14 12 10 15 15 15 17 14 8 5 7 5 2 3 2 1 1 3 5 5 3 1 3 1 3 3 5 3 2 3 3 3 6 4 4 6 5 4 5 6 6 6 7 8 9 10 9 7 7 6 7
4 4 5 6 6 7 7 7 7 7 7 7 6 5 6 7 8 8 9 9 10 10 9 11 15 14 7 2 4 5 5 10 16 17 18 18 15 15 11 10 16 17 15 16 16 12 6 4 5 3 2 2 3 2 3 3 1 1 1 2 1 3 4 5 4 4 4 3 4 6 2 3 5 5 2 5 7 7 7 7 7 8 8 7 7 6 6 6
4 4 6 7 7 7 7 6 7 7 6 5 4 4 5 6 7 8 8 8 9 9 9 11 16 21 15 7 6 6 8 12 14 16 19 17 14 15 12 12 17 17 13 12 16 13 5 4 5 2 1 2 3 2 2 3 2 3 2 2 1 3 4 5 5 5 3 2 4 6 4 4 5 2 1 5 7 7 7 7 7 8 7 7 7 6 8 7
5 6 7 7 7 6 6 6 6 6 4 3 3 4 4 5 7 7 6 5 6 8 9 10 12 18 19 13 8 5 9 13 15 17 19 16 12 13 13 13 15 15 12 9 11 10 7 9 7 1 1 1 2 2 2 1 1 3 2 3 4 3 3 2 5 5 2 1 4 6 4 3 3 3 4 8 7 7 8 7 7 7 7 7 7 6 7 8
6 7 7 6 6 5 5 5 5 4 3 3 3 4 4 5 7 7 6 5 5 5 5 7 8 8 11 12 7 4 10 15 16 17 19 17 11 10 12 12 12 11 9 7 8 10 10 11 10 6 2 1 1 2 2 2 1 2 2 2 6 6 5 5 3 5 4 1 4 4 3 1 5 6 5 9 7 7 8 7 7 7 7 7 7 6 5 7
6 6 6 6 6 5 5 4 3 4 4 4 4 4 4 5 7 8 9 8 7 6 5 5 6 6 6 6 3 8 13 14 18 18 19 20 11 7 8 9 10 8 7 6 7 11 12 12 9 4 1 3 1 1 0 1 2 3 2 2 4 6 5 8 3 2 3 3 4 5 3 6 8 7 6 9 8 7 7 7 7 6 6 6 6 6 5 7
6 6 6 6 7 6 5 4 5 4 4 5 4 4 4 5 6 7 10 11 10 7 5 6 8 6 6 3 2 12 16 13 20 21 19 21 13 6 6 7 9 8 7 7 7 9 11 13 11 4 2 3 2 2 1 3 4 5 4 2 4 5 5 10 7 2 1 2 4 4 4 8 6 6 8 8 8 8 7 7 6 6 6 6 6 6 5 6
6 6 6 7 7 7 9 10 9 7 6 6 5 5 5 5 5 5 7 10 12 11 5 6 10 5 5 3 2 13 19 16 22 23 20 20 14 7 9 12 10 9 8 8 8 8 9 11 11 6 4 5 4 3 4 4 4 5 4 4 5 4 5 11 9 3 2 3 3 3 5 8 5 6 9 7 7 8 7 7 7 6 6 6 5 6 5 5
7 7 7 8 9 12 15 15 15 14 13 13 12 10 7 6 4 4 7 7 13 17 12 9 9 7 5 2 5 12 17 17 20 23 23 18 10 7 13 15 8 7 9 8 10 10 6 7 7 5 5 7 8 5 4 5 5 4 4 3 5 5 5 7 8 3 1 4 2 2 5 8 6 4 7 6 7 7 7 6 6 7 6 6 5 5 5 4
8 7 7 9 12 13 14 15 15 15 15 16 17 18 17 14 8 3 2 4 7 13 15 15 10 8 5 6 6 8 13 15 16 23 29 20 7 9 14 9 5 9 10 7 13 12 5 5 4 3 5 6 5 4 6 6 6 5 3 2 4 4 5 5 7 5 4 6 7 6 6 9 9 3 7 6 7 8 7 6 6 6 5 6 6 5 5 5
9 8 7 9 10 9 9 10 10 9 9 9 11 13 18 22 21 17 11 6 3 4 10 17 13 6 4 8 5 9 16 17 15 24 31 21 9 11 11 4 5 9 8 5 10 9 5 4 3 2 5 6 6 7 6 2 4 5 4 3 4 5 5 6 8 7 9 9 9 9 7 11 11 2 7 7 8 8 7 5 6 6 7 6 6 6 5 5
10 8 7 7 6 5 6 9 10 7 4 3 4 4 6 11 19 26 26 17 9 4 4 8 8 4 2 6 7 13 17 13 14 23 31 25 13 11 11 6 4 4 5 3 6 6 4 4 4 4 5 6 5 5 4 3 5 7 8 4 5 6 5 7 9 9 9 9 7 7 8 10 12 6 7 8 8 8 5 5 5 6 7 6 6 5 6 6
10 9 7 5 3 3 6 9 9 8 5 1 2 4 3 3 7 11 15 14 8 5 4 2 3 3 2 5 8 17 14 8 12 21 31 28 13 7 10 8 5 6 5 3 2 5 4 6 5 3 4 5 6 1 2 2 3 5 6 4 5 5 5 7 11 11 7 7 8 8 10 11 12 11 8 9 8 6 5 6 6 7 7 6 6 5 6 5
12 11 8 5 3 5 7 8 7 9 8 3 1 4 2 2 5 1 3 6 5 5 6 3 4 4 5 4 8 16 8 4 11 19 32 28 10 5 7 6 7 7 5 1 3 4 5 7 4 4 4 5 5 2 4 5 7 7 5 3 4 4 6 9 10 9 7 6 10 11 12 10 11 13 7 8 6 3 6 7 7 9 8 6 6 6 6 4
13 12 8 6 4 6 8 8 8 8 9 9 10 9 4 4 6 5 2 4 5 6 5 5 7 5 7 3 10 16 5 5 11 16 29 26 11 5 4 5 7 4 6 4 4 5 6 5 5 7 4 4 5 4 7 8 6 6 4 2 3 4 8 10 7 4 6 4 10 13 10 8 11 11 3 6 6 6 8 8 9 9 8 6 6 6 7 7
14 12 9 6 4 5 7 8 8 7 9 11 12 9 5 6 7 4 3 5 1 5 3 4 5 6 7 5 12 16 6 6 7 10 23 19 8 5 3 5 6 3 6 5 4 4 3 2 6 5 3 5 6 6 7 7 5 4 4 3 4 5 6 8 8 8 8 5 8 11 9 6 7 6 7 9 9 10 10 11 10 8 8 8 7 7 8 9
12 13 12 8 5 4 5 7 7 8 9 10 11 9 5 4 4 1 2 4 1 3 1 1 2 4 5 5 13 10 3 4 3 8 19 14 5 4 3 3 5 5 6 4 6 7 2 4 3 5 6 8 6 6 6 6 5 5 3 0 5 9 7 9 12 12 11 7 4 5 8 5 4 4 6 7 9 10 9 10 10 8 9 8 8 8 9 10
9 11 12 11 8 5 5 6 7 7 8 8 8 6 4 2 1 2 2 4 3 3 2 2 2 5 7 9 14 5 3 5 5 8 16 12 6 3 3 1 3 5 6 4 6 5 0 3 4 6 6 8 6 5 4 3 4 6 4 4 6 9 10 14 14 10 9 7 1 5 5 5 5 3 5 5 7 8 7 9 10 8 8 8 8 9 10 10
7 9 10 10 9 8 5 3 6 6 4 5 4 3 2 1 3 1 3 4 4 4 4 5 3 9 10 11 14 4 4 7 8 12 15 16 8 1 3 4 2 4 4 2 3 1 1 4 5 5 4 7 6 5 3 2 4 4 5 5 7 8 11 16 15 8 4 7 4 5 3 5 5 3 5 7 8 9 7 9 9 7 7 8 9 9 10 10
6 8 9 9 10 10 5 2 5 5 2 2 2 1 1 2 2 2 3 5 4 3 4 5 4 9 9 10 12 5 3 7 10 14 15 18 12 1 5 6 2 3 2 3 4 2 1 6 7 6 5 6 6 5 5 2 4 4 7 5 8 10 13 16 13 6 4 6 5 3 4 4 6 4 6 9 10 9 7 7 7 8 10 10 10 10 9 9
7 8 8 8 10 9 5 3 5 2 2 1 1 1 2 2 3 2 5 4 3 2 1 4 4 7 7 9 11 6 2 5 4 10 15 19 16 3 5 6 3 6 4 5 2 5 1 3 3 4 5 5 3 5 7 0 2 6 8 6 8 9 12 13 9 5 4 3 4 4 6 4 7 6 6 8 8 7 6 6 7 9 10 10 10 10 8 8
9 10 10 9 8 6 3 4 5 1 1 1 1 1 2 1 1 3 5 2 2 2 1 2 4 6 7 8 8 5 2 2 3 6 11 15 17 7 3 4 5 5 4 4 1 4 1 1 3 4 4 1 4 7 6 2 1 7 6 7 8 6 9 9 4 4 4 1 3 5 8 4 8 5 3 4 5 4 3 4 5 8 9 9 10 10 9 9
12 12 12 10 6 4 4 4 3 1 1 0 1 1 1 2 3 6 5 1 1 2 2 3 3 4 7 8 6 5 4 3 1 4 5 6 14 12 3 3 7 4 4 5 2 3 3 2 2 3 2 3 4 6 4 4 3 6 6 7 7 5 6 5 2 2 4 2 4 4 9 5 6 3 1 2 3 4 2 5 6 8 10 10 11 10 9 9
15 15 13 11 7 4 3 2 0 1 1 2 2 1 2 2 5 7 2 2 1 3 4 4 3 4 7 5 4 6 4 5 5 5 5 4 9 12 6 5 6 4 5 6 5 6 6 3 1 2 2 1 1 3 5 5 6 7 5 5 7 5 4 3 3 4 4 4 3 5 10 7 5 2 1 2 4 5 4 6 7 8 9 10 10 9 9 10
16 16 16 14 10 5 1 1 1 1 1 2 2 3 4 4 5 3 1 3 2 3 3 3 4 5 5 3 4 6 4 5 5 5 4 4 6 6 6 5 4 5 5 4 5 7 6 2 3 4 2 1 3 4 6 6 7 6 4 5 7 6 5 4 4 3 3 6 4 8 11 6 3 2 4 5 5 5 6 6 8 10 11 11 10 9 9 9
14 16 17 16 13 8 4 2 1 1 2 2 2 4 6 6 3 1 3 3 1 2 2 2 4 5 4 4 5 6 3 3 5 6 4 3 5 4 6 6 5 4 2 4 5 5 5 5 5 5 3 2 4 4 5 5 4 5 4 4 5 4 5 5 4 3 5 8 6 8 8 5 3 2 6 9 7 5 8 9 9 10 10 10 9 9 10 13
10 13 16 17 16 13 8 4 3 2 2 2 4 6 8 5 0 1 2 3 2 3 2 2 5 5 3 2 2 4 4 3 3 6 4 4 5 4 5 7 8 5 0 3 4 3 4 5 4 3 3 5 4 1 2 1 2 3 0 3 2 1 2 4 3 3 7 9 9 7 3 3 5 3 4 7 4 4 9 8 8 10 10 10 11 13 16 17
7 10 14 17 17 15 11 6 3 2 2 4 7 7 6 3 2 0 1 4 2 3 4 3 3 5 4 2 2 3 2 3 3 5 4 4 3 3 4 5 6 4 2 3 3 2 2 4 6 4 5 6 5 3 2 2 2 3 1 4 2 2 4 3 4 5 6 8 7 4 2 2 4 3 3 3 1 8 10 11 13 15 14 15 15 16 16 15
5 7 12 15 18 17 14 8 3 2 3 6 9 5 2 2 2 2 2 2 1 2 5 5 4 4 5 4 3 5 3 2 2 4 3 3 2 3 4 3 4 5 4 2 2 2 2 5 9 9 9 6 3 4 0 2 2 3 3 3 4 4 5 1 4 4 4 5 5 3 2 3 4 3 3 5 10 15 15 15 16 15 16 17 14 14 14 14
4 4 8 15 20 19 14 8 3 4 5 7 8 3 2 2 3 3 2 1 0 1 2 4 3 2 4 3 3 7 5 2 3 3 2 1 2 4 4 4 3 5 4 1 1 0 0 5 9 5 7 8 2 2 2 1 1 2 2 4 4 0 3 2 2 4 4 5 5 4 7 6 4 2 5 11 15 16 15 15 15 16 17 16 14 14 15 15
5 1 4 16 23 18 12 7 5 6 7 8 7 3 2 1 3 3 1 1 0 2 4 2 0 1 2 2 4 6 5 3 4 4 2 2 2 3 3 4 3 4 5 3 0 1 0 4 8 3 4 11 5 3 5 4 2 4 1 2 1 1 2 1 2 5 7 8 7 8 10 6 2 2 6 11 13 14 16 16 16 16 16 15 15 16 16 16
6 2 3 16 22 13 10 11 9 7 8 7 4 2 1 1 2 2 2 1 0 2 3 0 1 2 1 1 2 4 4 2 3 3 2 2 2 3 4 2 3 5 7 3 2 2 1 1 6 4 6 10 6 4 4 6 4 3 3 4 2 1 2 2 2 2 5 9 8 9 10 4 1 2 6 10 13 16 18 15 13 15 16 16 16 16 16 16
4 3 2 16 17 8 14 19 13 8 7 4 3 2 1 1 2 2 3 2 0 1 2 1 1 2 2 2 1 2 3 3 3 2 2 2 2 2 4 2 3 7 8 3 2 2 2 0 5 6 6 6 4 2 3 4 4 5 6 5 2 1 1 2 2 1 3 7 7 8 10 4 3 3 6 13 17 16 16 15 14 15 17 18 17 16 16 16
4 4 4 17 12 2 9 18 11 5 4 3 2 2 2 1 1 2 2 2 0 0 1 1 1 1 1 2 2 2 3 3 3 2 1 3 3 2 2 2 3 6 5 5 3 2 2 1 3 5 5 4 5 5 4 3 0 4 5 3 2 2 1 2 5 2 2 4 5 6 9 7 1 2 8 14 14 12 14 16 15 16 19 20 18 17 17 16
6 3 6 17 7 5 9 9 4 4 4 2 1 1 1 1 1 1 1 1 1 0 2 2 1 1 0 1 2 2 3 3 2 3 2 2 2 0 2 3 4 2 2 2 3 2 0 1 3 5 4 6 10 7 2 1 2 2 2 2 2 1 1 2 7 4 2 5 7 6 8 6 1 3 12 13 10 10 12 14 16 17 18 19 19 18 17 17
4 2 6 15 4 9 13 7 2 5 3 1 1 1 2 2 1 1 2 2 2 1 3 2 1 2 0 1 1 2 3 2 1 2 2 2 1 2 4 5 5 2 3 2 3 2 0 0 3 5 5 6 8 5 3 2 4 4 2 1 2 2 2 4 6 1 1 5 6 6 9 7 1 7 13 12 8 10 12 14 16 17 16 17 19 18 17 17
2 2 5 16 9 4 7 4 2 2 0 1 3 2 2 2 2 2 2 2 2 1 2 1 1 1 1 1 1 1 2 2 1 2 3 2 0 3 4 5 4 3 2 0 1 2 1 1 3 5 6 8 7 7 6 4 4 5 5 4 3 3 2 3 2 3 0 4 3 6 11 10 6 11 14 11 9 13 14 14 15 16 16 17 17 17 17 17
3 1 3 15 19 11 4 4 6 5 3 2 4 2 2 3 1 2 2 1 1 1 1 1 1 1 1 1 1 1 2 2 1 2 3 2 1 2 4 5 2 1 1 4 4 1 0 1 2 3 4 9 9 8 9 9 7 5 6 8 6 4 1 1 2 2 2 3 2 4 11 13 13 17 16 12 12 16 17 16 14 14 15 17 17 17 17 15
3 3 2 8 14 10 3 1 5 6 4 4 3 2 3 3 2 0 2 1 1 1 0 1 1 1 2 4 3 2 3 2 0 2 3 1 2 2 3 3 3 2 2 4 3 3 1 1 1 3 2 6 9 10 11 10 10 9 12 13 7 0 2 3 1 3 5 7 5 6 11 16 19 19 15 12 15 17 17 17 16 14 15 17 17 17 17 14
3 2 2 1 4 5 5 5 5 4 2 4 3 1 2 2 2 2 1 0 0 1 1 1 3 3 2 4 3 2 4 4 3 3 1 1 2 3 2 0 3 3 0 2 1 4 3 3 1 2 6 9 11 13 13 11 10 12 15 11 4 2 3 4 1 5 6 7 10 12 15 20 22 18 13 13 15 16 17 18 17 15 15 17 18 19 19 16
3 2 1 2 1 2 2 3 3 5 4 4 3 1 2 3 3 1 1 2 2 2 1 2 5 4 2 2 2 1 5 5 3 2 1 1 1 2 3 1 1 3 3 2 2 4 4 2 4 3 7 12 12 12 12 10 10 13 12 5 2 3 4 3 2 6 5 6 13 19 22 23 22 16 13 13 15 16 18 18 17 15 15 18 20 20 19 18
3 4 1 2 3 3 2 1 3 6 6 5 4 3 3 3 3 1 1 2 3 3 2 2 5 5 3 3 3 1 3 3 2 2 1 1 1 1 2 1 2 3 4 4 3 1 3 3 5 4 8 12 11 10 10 10 12 15 10 1 2 3 3 4 5 6 6 8 14 20 23 22 16 12 12 14 15 16 17 16 17 16 17 20 21 19 18 20
2 3 1 4 4 1 0 2 3 5 5 4 4 2 2 3 2 1 1 2 2 4 3 2 5 6 2 3 5 2 3 3 3 5 3 1 2 1 1 1 2 4 5 3 3 2 3 3 4 3 5 9 9 9 10 11 14 15 9 3 4 5 5 7 8 7 8 12 16 19 21 17 10 8 12 15 16 17 17 18 18 17 19 21 20 19 19 21
4 5 6 7 4 3 2 3 3 5 4 4 2 1 2 2 1 1 2 2 1 1 2 1 4 5 2 4 4 1 5 4 5 6 4 3 2 2 2 2 2 1 4 3 2 3 4 3 4 4 4 7 7 9 15 17 15 11 7 5 7 7 5 4 5 7 10 16 20 19 15 11 9 10 15 17 18 19 19 19 17 17 20 21 19 19 21 22
6 5 5 7 4 2 3 3 4 5 2 2 1 0 1 1 0 2 2 1 2 2 2 1 1 2 2 4 3 3 6 5 6 5 3 2 2 3 2 1 4 4 1 1 1 2 3 3 4 4 4 8 10 12 15 14 11 7 3 2 5 7 8 7 7 10 13 14 15 13 10 10 13 16 19 20 20 19 18 17 16 17 19 18 17 19 21 21
Wind_Direction
105 87 70 53 41 41 31 23 16 4 358 350 351 357 6 25 36 29 18 17 14 10 6 352 340 234 199 239 280 334 358 30 24 25 32 3 350 352 355 349 344 346 348 342 346 352 340 347 345 327 306 281 238 216 321 346 63 58 81 89 301 245 234 236 164 244 63 327 343 9 30 93 88 23 131 80 59 80 79 71 73 70 68 67 64 61 56 49
100 78 59 46 39 34 23 17 11 3 354 346 353 2 16 45 44 27 19 18 13 5 7 2 343 250 226 237 261 313 344 32 31 31 18 356 354 358 360 1 357 355 357 353 351 359 349 326 329 343 360 315 307 245 5 344 66 92 131 92 263 213 275 22 118 31 26 333 347 41 54 77 33 313 122 89 58 69 78 67 66 72 61 61 61 61 61 55
91 66 50 42 33 26 19 14 9 1 356 356 6 18 43 67 48 30 24 20 11 10 20 23 17 325 237 227 246 302 325 28 33 15 360 356 359 360 1 5 1 357 354 349 340 330 311 294 302 329 18 316 281 146 95 339 29 153 134 82 260 196 74 19 73 45 11 312 15 69 68 60 8 340 45 113 101 69 96 111 79 90 82 72 63 64 65 60
74 50 42 38 31 24 17 11 8 4 8 15 26 51 70 68 49 32 27 23 14 21 36 38 34 28 185 201 220 281 330 32 22 347 352 355 359 0 5 2 356 354 347 342 333 312 287 287 295 296 109 292 283 79 87 242 22 54 122 153 247 147 95 356 67 53 336 354 50 108 87 71 20 18 73 144 117 78 140 158 136 129 117 103 82 72 72 66
56 45 41 38 31 21 15 12 11 13 21 36 54 70 76 60 46 31 26 28 19 25 42 41 38 41 75 128 254 279 1 52 326 340 350 349 354 357 1 0 354 349 346 346 339 324 293 278 300 356 131 290 326 28 358 253 114 49 164 161 203 101 117 240 146 67 349 34 65 107 113 136 181 36 52 159 161 184 173 155 140 133 123 114 103 88 78 72
51 48 46 39 27 16 16 17 16 24 38 56 70 75 71 54 40 28 25 33 33 28 19 21 26 36 54 63 46 15 77 107 318 340 345 344 350 352 359 0 354 351 351 359 355 351 328 297 359 342 5 62 10 98 262 294 97 103 266 138 76 95 134 212 193 123 75 86 86 136 141 122 102 58 16 113 149 174 157 146 134 125 120 111 102 95 82 77
56 52 50 34 19 18 18 18 22 37 54 66 74 71 61 46 32 24 23 34 41 39 16 7 8 6 356 26 54 48 80 103 331 342 341 344 352 351 2 1 358 5 19 21 7 4 23 31 37 267 48 49 70 132 302 333 58 105 237 283 69 105 141 182 179 183 124 118 172 146 128 132 134 148 113 107 147 155 143 138 132 126 120 110 101 98 90 85
64 53 42 24 18 20 17 21 33 48 62 68 71 64 52 37 26 24 30 34 37 39 29 15 9 4 346 318 64 53 58 333 336 344 342 348 1 359 359 1 7 20 38 33 16 7 33 34 7 21 64 26 72 63 347 4 20 72 204 275 106 112 155 162 150 176 150 143 148 104 105 176 165 141 124 158 168 160 155 145 138 130 117 112 107 103 96 85
62 44 30 24 22 19 19 27 41 52 64 68 65 55 43 29 24 29 37 36 35 37 30 28 30 32 44 83 85 65 356 334 341 349 348 349 4 4 359 13 15 20 38 35 27 28 42 35 350 15 55 321 60 38 359 48 348 264 248 313 71 140 167 163 168 189 181 170 129 105 119 184 154 120 122 187 176 167 163 155 152 134 121 121 118 113 107 98
52 37 29 26 24 20 24 33 42 54 61 64 58 45 35 29 32 37 42 45 46 42 33 42 46 48 58 74 70 51 338 345 358 356 353 348 358 4 6 24 18 17 34 34 29 32 34 1 313 281 215 337 36 6 8 102 202 268 293 355 40 158 181 177 182 203 190 177 159 151 183 191 166 147 237 205 178 164 158 165 164 136 136 134 126 124 113 109
40 36 34 31 31 31 33 36 44 56 60 61 49 44 42 38 40 36 34 37 43 45 42 46 47 48 59 67 70 41 350 3 9 1 359 352 352 0 6 20 16 14 22 26 22 20 18 358 339 356 66 16 359 340 359 66 315 312 357 10 324 320 297 212 176 209 168 145 207 164 161 173 186 257 217 187 177 166 161 176 171 142 149 140 128 128 114 114
41 43 41 39 41 41 34 33 51 70 76 76 62 62 54 45 42 34 31 26 26 34 34 38 30 31 52 59 70 38 12 17 9 2 5 359 348 353 9 17 12 11 14 12 4 8 17 2 13 57 39 323 15 8 354 327 11 335 55 50 309 342 328 286 215 198 149 213 230 128 49 249 215 245 185 163 173 172 165 176 176 154 151 140 129 123 113 120
49 49 44 46 42 28 16 27 74 94 91 80 72 67 56 50 45 44 48 44 41 34 20 23 16 21 51 53 63 32 20 16 10 8 6 1 354 357 15 13 356 2 14 9 0 9 15 8 24 66 30 44 3 257 22 344 37 339 15 95 333 8 331 299 311 175 132 212 197 102 336 273 232 220 167 160 172 171 175 181 177 162 149 138 130 122 117 119
54 48 43 42 29 17 24 57 87 101 96 80 70 64 56 49 44 49 45 39 42 33 27 33 15 26 62 70 71 24 11 6 11 12 5 358 358 0 357 351 335 332 351 359 4 10 15 23 37 42 26 41 302 266 11 7 30 352 344 45 24 28 313 311 324 303 329 246 152 101 286 276 260 204 174 172 171 172 186 190 175 162 149 137 131 125 121 115
49 40 36 35 39 56 71 78 80 86 82 68 60 50 39 26 21 23 19 35 47 36 37 35 20 40 71 56 20 6 2 3 6 7 3 353 354 355 337 338 327 315 327 335 342 349 3 28 48 45 341 337 5 35 16 5 23 18 15 345 351 21 315 317 320 284 297 302 131 116 268 277 274 201 183 174 171 180 190 196 175 158 151 135 127 125 121 111
43 34 34 50 77 85 81 76 75 78 77 74 70 59 45 21 360 0 8 54 60 43 42 24 23 77 93 350 332 353 357 357 355 356 359 355 347 337 336 338 337 332 324 318 340 345 353 31 58 57 12 6 21 38 44 27 355 7 45 330 313 343 330 320 316 292 352 333 300 219 261 284 293 192 180 176 177 190 193 196 172 150 142 123 112 109 103 89
43 37 48 82 100 92 78 70 67 72 76 78 75 68 62 52 45 42 16 94 69 45 46 30 35 95 68 0 349 347 340 339 345 351 358 4 350 328 338 340 340 341 329 337 6 6 17 38 48 42 37 38 18 29 56 27 329 328 30 342 289 307 320 311 306 311 0 342 304 281 261 277 291 198 174 188 184 200 203 190 166 138 118 107 95 88 82 73
48 47 75 110 117 95 66 50 47 55 65 73 74 68 63 56 57 62 63 81 60 29 41 23 31 89 14 355 350 323 322 328 346 356 359 7 358 338 344 315 283 327 344 19 14 16 33 23 50 59 23 26 20 49 65 347 285 287 299 311 293 301 309 293 299 319 340 328 304 300 282 280 294 210 178 207 193 205 207 169 146 124 107 102 85 79 71 63
54 58 92 126 126 86 38 21 20 25 36 63 62 40 42 47 55 55 50 55 59 47 41 358 17 109 271 319 322 325 330 335 354 0 2 2 352 351 360 337 288 346 35 53 2 9 41 28 48 43 360 351 356 64 105 226 248 268 268 253 268 293 290 274 290 309 334 329 298 289 283 286 298 270 206 213 204 203 191 122 116 109 97 93 79 75 67 58
56 62 87 116 114 46 11 9 16 26 31 359 332 358 13 23 40 41 32 44 71 97 110 322 1 99 282 294 325 341 347 2 7 3 2 359 351 2 5 358 22 42 40 98 44 6 48 63 46 14 316 304 309 359 100 291 308 313 288 257 267 283 283 284 296 308 352 346 289 279 284 285 293 283 235 203 202 190 132 95 92 88 79 80 76 69 62 55
58 63 77 83 57 21 14 21 33 45 48 49 52 48 83 93 69 104 327 31 44 71 94 50 40 53 340 301 338 352 352 354 5 5 2 1 9 22 357 4 40 28 348 101 96 14 52 66 12 300 289 304 315 359 43 6 4 359 331 293 307 295 292 293 290 310 5 350 293 291 297 295 293 287 254 181 177 142 105 97 85 80 74 72 70 60 47 36
57 59 64 56 45 36 34 37 35 47 62 75 85 82 107 111 103 147 152 76 18 17 64 40 47 35 349 352 358 358 11 356 358 2 0 3 23 28 355 27 54 37 342 19 64 16 44 50 306 288 301 350 9 40 42 19 10 2 354 4 341 310 307 297 269 307 359 334 295 298 305 300 290 291 303 116 106 77 83 90 86 80 70 58 59 53 35 25
53 51 47 37 36 36 35 36 29 42 62 70 77 83 103 92 103 138 87 102 21 344 18 25 43 11 352 20 357 355 37 27 350 347 358 5 18 24 46 38 40 44 6 29 90 67 58 299 291 312 17 47 22 18 40 23 8 0 357 16 320 308 325 305 293 321 325 268 266 296 309 295 288 329 50 72 83 82 80 82 80 76 70 56 53 52 34 21
45 42 40 32 28 26 26 30 29 44 53 64 78 82 102 110 111 85 48 101 48 323 312 12 77 24 349 340 345 346 74 39 358 347 358 8 4 2 57 48 38 33 2 36 98 101 138 262 315 23 41 62 31 1 42 38 354 328 312 9 304 305 303 287 297 321 322 284 242 316 325 304 313 13 71 73 80 85 80 81 74 61 62 50 42 41 26 15
34 29 30 30 31 14 357 14 31 48 53 65 81 77 79 137 221 336 54 87 12 313 327 359 37 11 338 332 341 333 135 37 26 350 355 11 4 351 14 1 69 25 336 27 78 97 253 296 28 37 28 49 36 355 30 64 0 327 272 237 281 300 302 297 306 330 335 311 342 46 351 299 320 16 104 89 80 84 75 78 71 53 51 42 34 29 14 11
16 11 13 17 17 5 350 9 29 33 44 48 57 65 46 273 244 300 81 71 2 316 349 353 356 358 346 339 337 351 82 4 341 348 2 12 359 130 44 338 55 26 316 29 55 110 336 349 40 55 43 37 24 360 356 78 44 335 262 259 288 306 308 302 310 333 327 292 307 49 14 293 311 11 100 109 100 88 73 69 63 47 42 35 29 20 9 10
358 356 358 358 357 2 8 21 6 12 42 19 21 53 339 290 203 164 77 46 359 339 353 328 335 0 356 346 345 41 83 311 329 354 3 12 1 119 68 6 5 346 288 76 21 279 336 0 22 43 49 33 14 353 327 47 70 297 272 305 314 312 305 298 308 314 265 285 313 41 39 316 302 351 81 110 104 81 64 59 47 35 33 29 21 11 7 6
347 343 345 348 348 354 8 5 349 8 87 3 354 3 289 231 178 125 83 66 340 356 359 300 332 357 353 0 15 69 186 284 8 345 342 15 15 29 70 27 348 296 294 88 5 279 344 8 15 48 44 31 1 307 292 322 101 269 277 311 307 298 293 294 306 294 275 313 323 351 28 346 298 336 61 96 93 70 50 43 36 32 30 23 11 1 359 0
351 342 336 334 333 336 342 346 337 272 149 344 12 323 253 179 114 56 75 106 308 345 209 318 348 340 348 7 20 48 342 335 84 315 333 18 15 17 96 24 2 313 318 85 182 269 333 244 192 116 72 343 269 279 291 64 14 281 297 321 307 291 287 291 290 283 313 344 255 331 26 3 297 319 43 52 67 69 32 28 33 33 26 12 2 355 355 355
4 356 346 337 326 314 303 318 326 219 207 214 193 267 175 109 63 56 43 9 315 321 299 15 358 335 9 14 353 2 13 343 317 337 352 19 11 20 74 12 26 33 353 26 30 277 304 279 196 125 130 222 241 280 316 54 20 331 350 338 315 295 285 294 282 320 359 289 237 354 18 343 300 311 358 8 106 133 53 30 25 20 15 3 355 352 353 351
22 16 9 3 2 339 304 307 331 185 192 179 182 88 89 39 55 84 63 290 301 330 345 4 337 352 19 23 342 344 355 328 334 23 16 3 17 19 23 10 17 29 6 3 346 323 338 359 303 271 244 173 41 322 325 13 26 15 7 337 329 323 323 350 2 24 18 299 271 359 351 320 283 263 194 183 146 126 85 51 22 9 4 356 351 351 352 346
34 32 28 25 26 18 355 169 178 194 178 176 163 64 78 40 31 83 279 312 334 337 342 309 309 342 351 4 353 327 327 332 349 45 41 31 41 31 40 35 349 358 4 348 340 336 334 316 295 308 299 66 26 340 330 353 17 17 4 2 1 347 347 351 341 360 320 283 307 348 337 313 262 219 166 172 157 113 89 65 27 9 358 352 351 349 343 336
32 33 35 35 36 39 62 99 96 120 143 144 91 57 75 75 43 272 291 331 332 299 308 255 291 313 327 7 352 321 335 340 351 26 42 69 59 29 35 30 16 26 343 321 356 351 325 311 331 348 338 11 29 359 329 332 0 1 7 35 19 348 338 317 303 318 285 278 304 334 324 299 298 269 183 180 166 96 48 38 23 5 352 346 344 342 341 342
21 25 32 35 36 37 45 53 53 85 124 95 72 54 62 75 136 276 308 287 261 313 319 275 308 326 1 37 330 333 1 328 352 33 21 36 43 10 4 6 14 39 34 342 1 2 356 320 318 8 330 320 342 313 257 268 326 314 265 95 50 324 283 268 262 293 296 294 306 321 302 281 316 307 189 175 157 39 25 22 7 358 355 351 350 351 350 349
19 24 29 31 31 29 28 30 37 56 93 80 65 60 74 103 236 138 274 265 288 323 308 310 353 10 1 328 322 11 13 303 356 49 36 34 49 358 347 349 357 19 47 17 328 340 17 277 275 320 315 307 309 272 169 97 326 281 149 75 6 231 201 235 245 249 278 294 299 296 222 249 326 7 101 129 8 2 9 7 3 1 360 358 354 351 349 345
32 34 29 25 21 17 19 23 33 52 93 86 66 60 106 179 217 168 208 252 300 293 313 347 25 32 342 317 344 356 352 279 336 38 45 59 82 7 345 321 353 29 52 45 306 352 21 278 294 322 329 327 294 262 138 72 321 321 35 348 277 201 150 196 284 269 281 293 289 289 271 302 341 3 41 19 351 354 0 1 2 0 359 356 349 343 341 339
36 51 31 19 11 8 12 19 45 77 84 82 77 92 172 201 199 190 218 311 49 272 19 17 11 21 343 321 326 335 343 336 342 19 31 33 56 18 352 314 349 38 33 345 250 253 173 287 293 306 337 334 291 234 339 6 86 65 12 289 268 56 99 113 290 295 301 288 278 297 301 314 331 299 0 4 350 347 351 355 360 359 356 349 338 337 338 337
2 48 37 14 7 7 20 43 83 91 77 71 77 111 143 163 207 201 200 23 7 34 58 72 315 25 10 323 297 315 347 2 348 7 25 14 19 51 36 325 332 31 3 350 34 295 34 309 292 262 345 333 338 40 350 326 56 93 337 298 99 16 318 343 315 296 300 295 290 302 303 308 312 298 355 354 338 341 351 357 0 353 347 340 336 337 336 335
357 47 36 2 2 16 57 78 85 69 66 76 92 140 145 175 242 228 170 118 95 76 64 54 297 7 12 335 276 305 352 5 328 348 33 24 1 59 66 327 305 352 349 14 107 303 353 328 286 296 350 339 341 24 340 310 334 17 350 359 69 164 245 278 307 284 290 293 295 307 305 305 83 12 357 348 343 351 354 354 354 345 341 340 337 336 335 332
7 80 13 354 4 55 78 70 64 48 61 96 150 155 104 172 261 263 194 175 189 106 78 300 336 3 319 331 327 307 347 338 323 356 45 20 6 36 44 13 318 329 338 26 85 320 345 236 270 301 346 352 338 327 299 295 331 354 342 337 333 313 284 275 264 202 269 290 300 306 300 309 63 52 8 359 356 357 352 348 346 341 340 339 336 336 334 330
33 89 331 346 351 170 72 57 51 40 70 79 108 109 63 140 203 302 230 195 223 161 96 145 144 34 311 332 332 315 342 335 342 37 45 22 37 30 16 31 330 320 346 21 21 352 350 272 262 296 329 335 296 270 249 233 76 359 316 284 256 273 9 318 291 255 244 287 293 291 294 306 20 51 12 7 1 356 352 346 342 340 339 337 335 334 332 330
52 101 323 348 358 149 74 53 24 37 85 76 47 109 55 103 121 341 303 17 34 314 32 91 144 24 22 306 316 337 359 336 347 31 48 47 50 309 296 340 327 309 94 10 303 275 256 233 262 276 274 270 273 278 285 230 78 34 269 250 298 291 114 296 289 287 293 295 294 286 290 292 175 40 7 8 6 357 351 344 340 339 337 334 332 332 332 329
73 147 349 4 40 127 77 59 336 25 62 254 2 53 28 65 92 10 4 23 20 358 18 29 38 26 37 247 359 356 344 330 354 31 66 82 43 248 273 327 343 32 85 8 303 294 288 322 309 292 277 270 274 295 357 27 35 13 300 302 319 271 200 235 253 299 315 282 299 300 290 289 36 17 359 3 8 354 346 345 342 337 334 332 329 331 332 325
105 178 9 20 31 113 82 93 144 61 138 259 42 24 5 50 86 52 27 6 8 68 38 356 3 27 272 193 95 268 312 23 38 31 81 102 347 263 286 329 11 54 48 175 252 327 321 283 348 339 329 329 326 332 334 332 355 340 306 321 305 264 293 286 285 26 284 242 303 309 292 296 332 348 348 356 359 348 343 344 342 335 333 329 327 329 328 323
69 53 333 20 35 58 96 149 139 134 174 109 68 45 32 36 55 122 121 352 338 139 109 317 3 49 271 351 20 300 13 57 307 356 55 79 306 291 301 322 4 71 196 198 188 81 110 221 67 54 346 329 324 319 320 321 326 317 304 316 303 249 258 336 312 325 280 287 330 287 283 298 319 332 340 351 350 343 339 339 339 335 330 325 325 328 325 325
78 52 323 2 27 49 66 82 101 115 152 124 75 35 68 54 326 197 114 25 344 103 63 329 9 31 17 31 23 340 5 34 349 45 56 40 282 267 268 300 321 302 208 197 176 115 96 297 101 128 243 283 285 287 298 307 309 308 310 318 326 292 98 69 357 277 296 312 301 268 285 304 316 327 338 348 346 339 335 336 337 334 329 324 324 324 321 324
98 93 70 6 5 33 30 17 55 86 137 126 100 27 76 67 335 350 44 4 324 34 26 20 36 47 34 29 25 323 327 355 36 63 64 244 251 277 283 325 338 332 104 165 158 110 66 339 282 209 250 264 273 282 290 295 294 300 309 322 358 36 45 62 343 290 318 323 304 307 316 314 314 325 340 344 340 334 332 334 333 329 325 322 320 320 320 323
73 132 137 116 92 61 40 20 60 75 63 82 100 89 78 60 29 21 333 328 6 21 36 21 18 37 57 44 62 311 330 351 15 41 338 285 289 335 343 344 324 357 49 31 348 107 105 275 256 252 274 277 282 285 289 296 299 304 313 333 49 17 26 48 285 291 328 316 298 310 318 312 312 327 341 338 334 331 330 329 325 322 321 319 320 320 320 324
79 107 26 45 98 148 177 28 73 77 61 68 79 57 78 85 58 347 287 359 4 350 48 42 336 341 15 49 87 88 329 348 328 286 260 290 296 19 8 307 291 351 49 28 335 92 122 267 279 285 284 286 290 286 288 303 311 312 316 359 82 19 13 356 311 297 299 283 287 305 310 307 313 330 331 328 329 328 326 323 319 320 320 320 320 320 321 324
130 140 135 67 69 96 329 17 67 77 46 49 74 45 64 103 93 327 8 50 10 334 21 49 311 310 334 55 77 122 232 207 223 242 207 150 294 244 162 209 268 333 21 28 324 2 41 314 304 332 310 298 299 300 307 314 312 311 313 332 7 12 7 345 328 317 307 298 301 308 307 305 317 328 318 322 327 325 323 322 321 322 322 321 320 320 322 325
102 126 138 111 60 360 8 14 65 85 37 16 61 46 24 66 139 154 40 41 114 60 13 5 314 315 348 46 58 206 235 201 189 208 191 169 216 197 177 189 176 8 1 359 331 8 22 330 323 15 342 301 309 331 325 316 309 308 315 337 352 359 354 326 306 311 318 315 315 315 311 309 319 322 319 323 327 324 322 323 323 322 320 320 320 322 324 326
97 90 109 104 77 5 18 11 34 73 68 352 40 87 43 29 256 91 75 29 72 97 170 172 1 355 24 13 347 239 224 203 191 197 173 137 113 98 100 109 119 126 135 9 2 13 33 346 334 9 335 302 319 332 319 311 317 322 324 5 359 344 331 314 304 313 320 320 318 316 312 313 320 324 325 325 325 323 322 323 322 318 316 316 318 322 323 324